スキッフ彗星

C/2005 K1 ( Skiff )

English version
Home page
Updated on September 17, 2007

---------------------------------------------------------------------

・ プロフィール

発見日 2005年5月16日
発見光度 16.9等
発見者 B. A. Skiff (Lowell Observatory)

・ 写真集

・ 軌道要素

The following orbital elements are taken from MPC 56954:

Epoch 2005 Nov. 6.0 TT = JDT 2453680.5
T 2005 Nov. 21.2190 TT                                  MPC
q   3.692880             (2000.0)            P               Q
z  -0.000888       Peri.  134.9438      +0.0541585      +0.3425969
 +/-0.000002       Node   106.3049      -0.9358789      -0.3100670
e   1.003281       Incl.   77.7477      +0.3481344      -0.8868404
From 577 observations 2005 May 16-2006 June 9, mean residual 0".6.

・ 星図

・ 光度変化

        m1 = 7.5 + 5 logΔ + 10.0 log r(t + 100)

---------------------------------------------------------------------

軌道要素はMPCのEphemerides and Orbital Elementsに掲載されたものです。
星図は StellaNavigator Ver.2.0 for Windows (アストロアーツ 編著 / アスキー出版局刊) で作成したものです。
光度グラフはComet for Windowsで作成したものです。

---------------------------------------------------------------------

Copyright(C) Seiichi Yoshida (comet@aerith.net). All rights reserved.